Dewpoint
65 69 72 72 72 72 71 70 70 70 71 70 70 70 70 69 69 70 70 70 69 69 67 67 67 67 69 68 67 67 66 65 64 64 68 68 67 66 68 68 67 66 69
67 70 72 72 72 72 71 71 72 71 72 72 70 69 70 71 70 70 69 69 68 67 65 65 66 66 67 65 64 63 65 65 65 67 68 67 67 65 66 66 66 64 66
68 70 69 72 72 72 73 72 72 72 73 72 71 70 70 71 70 69 68 67 66 64 63 62 64 65 65 64 65 67 68 67 67 68 67 65 62 64 65 65 65 64 64
69 69 69 73 73 72 72 72 72 71 71 71 71 69 70 70 70 69 67 66 64 63 63 63 64 65 64 64 67 67 66 66 66 66 64 65 65 67 67 65 63 62 63
69 69 69 72 73 73 72 72 72 71 71 71 70 70 70 70 69 68 66 65 64 64 64 63 63 63 63 66 67 66 65 65 64 62 61 61 63 65 65 64 62 65 65
67 68 70 72 72 72 72 72 72 71 71 71 70 69 68 68 68 66 65 64 65 65 63 63 61 61 64 65 64 65 65 64 62 60 61 64 63 65 64 64 62 63 65
65 67 67 71 71 72 72 71 72 72 71 70 69 68 68 67 66 65 64 64 63 63 62 61 60 62 65 66 66 65 64 64 61 61 61 62 64 66 65 64 64 62 64
65 65 66 69 71 71 72 71 71 71 70 70 69 68 66 65 64 63 63 62 62 62 61 61 63 65 64 65 65 65 64 63 60 59 60 62 65 64 64 63 62 62 62
64 65 66 67 69 70 70 71 70 70 70 70 69 67 67 66 65 63 63 62 62 61 62 63 65 63 65 66 65 64 63 61 56 56 57 61 64 63 60 57 60 62 62
60 63 65 66 67 68 68 69 69 69 69 69 68 67 66 65 62 64 63 63 62 61 63 65 64 63 65 66 64 62 61 59 56 57 58 59 60 61 60 59 59 60 59
51 61 64 66 66 67 67 67 68 68 68 67 66 65 64 62 62 62 62 61 64 64 63 64 63 64 66 64 63 61 59 56 57 57 61 62 61 58 58 57 58 58 57
49 48 61 64 65 66 66 66 66 67 66 65 64 63 61 61 60 61 61 60 64 65 63 65 64 62 59 56 58 57 54 54 55 57 59 62 59 58 58 58 58 57 57
45 50 53 61 64 65 65 65 66 67 66 65 63 61 60 59 60 60 59 57 60 62 59 62 61 56 54 53 53 53 53 55 57 56 58 61 59 60 60 57 58 57 58
46 48 51 58 62 64 65 65 66 66 66 64 62 60 59 58 59 59 58 58 59 59 59 59 58 54 53 52 54 54 55 55 54 54 57 60 59 58 59 59 58 58 56
45 48 51 54 60 63 63 63 65 65 65 64 61 59 58 58 58 59 57 56 57 56 59 59 56 54 52 54 54 53 53 53 53 55 55 59 61 60 58 58 58 58 58
45 47 51 54 58 62 63 63 64 65 65 63 62 59 58 57 57 58 57 55 57 56 58 58 54 53 52 53 52 53 53 53 53 54 54 56 59 60 59 58 58 58 58
44 47 49 53 57 60 62 63 63 65 64 63 61 60 58 57 57 58 57 56 58 57 57 56 53 50 52 52 52 52 52 52 52 51 52 53 55 59 60 59 58 59 58
44 46 48 51 56 58 61 59 58 59 61 63 62 60 58 56 56 58 57 56 58 57 56 55 51 47 52 52 51 52 52 52 50 50 52 53 53 54 58 59 59 58 57
46 46 47 50 55 57 56 56 56 57 57 57 57 60 58 56 56 57 57 56 57 56 54 54 49 47 51 51 51 51 50 50 48 49 50 51 52 52 52 55 56 56 54
47 47 50 54 56 55 56 55 54 54 55 56 56 55 55 57 57 57 57 56 56 56 52 51 47 47 50 51 50 47 46 46 45 47 50 50 50 50 48 46 47 49 51
53 52 53 55 56 56 55 53 53 53 54 54 55 55 54 53 56 56 56 55 55 55 51 50 46 47 49 49 46 43 42 42 43 44 47 47 46 46 46 44 42 42 43
53 54 54 54 54 55 55 51 51 51 52 53 54 55 55 54 54 56 54 54 54 54 50 48 46 47 47 49 47 42 39 39 40 41 43 45 45 45 44 40 38 37 38
52 53 53 54 52 51 50 51 51 51 53 53 53 54 53 54 53 53 52 52 53 53 50 48 47 46 47 47 46 42 39 39 39 40 40 41 42 41 40 35 35 36 36
51 53 53 54 52 52 51 50 49 49 50 52 53 53 52 52 52 52 50 49 51 50 50 48 47 46 47 44 45 43 42 41 39 37 39 39 40 37 35 35 34 34 33
52 53 54 55 54 53 53 51 49 48 49 50 52 52 53 52 52 52 50 47 48 49 49 49 47 46 46 44 44 42 41 42 40 39 37 37 37 37 34 33 33 33 34
42 47 53 54 55 54 53 53 51 48 48 50 51 52 52 52 52 51 50 47 47 47 48 49 48 47 46 45 44 42 42 41 40 39 37 36 36 36 35 33 33 33 32
Lifted_Index
-2 -3 -4 -4 -4 -4 -3 -2 -2 -1 -1 -1 -1 -1 -1 -1 -0 -0 -0 -0 -0 0 1 1 1 1 1 1 2 3 3 4 4 4 3 2 3 3 2 2 2 2 1
-2 -3 -4 -4 -4 -4 -3 -3 -2 -2 -2 -2 -1 -1 -1 -1 -1 -0 -0 0 1 1 2 2 2 2 2 2 3 3 3 3 3 3 3 3 3 3 3 3 3 3 3
-2 -3 -3 -4 -5 -4 -4 -4 -3 -3 -3 -2 -1 -1 -1 -1 -1 -0 1 1 2 3 3 3 3 3 3 3 3 3 3 3 3 3 3 3 3 3 3 4 4 4 4
-3 -3 -3 -4 -5 -4 -4 -4 -3 -3 -3 -2 -1 -1 -1 -1 -0 0 1 2 3 4 4 4 4 3 3 3 2 2 3 3 3 3 3 3 3 3 3 4 4 5 4
-3 -3 -3 -4 -5 -5 -4 -4 -4 -3 -3 -2 -1 -1 -1 -0 0 1 2 3 4 4 4 4 4 4 4 3 2 3 3 4 4 4 3 3 2 3 3 4 5 4 4
-3 -3 -3 -3 -4 -4 -4 -4 -4 -4 -3 -2 -1 -1 -0 0 1 2 3 4 4 4 4 5 5 5 4 3 3 3 4 5 5 5 4 3 3 3 3 4 5 4 4
-3 -2 -3 -3 -3 -4 -4 -4 -4 -4 -3 -2 -1 -0 0 1 2 3 4 4 4 4 5 5 5 5 3 3 3 3 4 5 5 5 4 4 3 3 4 4 5 5 5
-2 -2 -2 -3 -3 -3 -3 -4 -3 -3 -3 -2 -1 -0 1 2 3 4 4 5 5 5 5 5 5 4 3 3 3 4 4 5 6 6 5 4 4 4 5 5 5 5 5
-1 -1 -2 -2 -3 -3 -3 -3 -3 -3 -2 -2 -1 -0 1 2 3 4 4 5 5 5 5 4 4 3 3 3 3 4 5 6 7 7 6 5 5 5 6 7 6 6 6
2 0 -1 -2 -2 -3 -3 -3 -3 -3 -2 -1 -1 0 1 2 3 4 4 5 5 5 4 4 3 3 3 3 4 5 6 7 7 7 7 6 6 6 7 7 7 7 7
5 3 0 -2 -2 -2 -2 -2 -2 -2 -2 -1 -0 0 1 2 3 4 4 5 4 4 4 3 3 4 4 4 5 6 7 7 7 7 7 6 7 7 7 8 8 8 8
7 6 3 -0 -2 -3 -2 -2 -2 -2 -2 -1 -0 0 1 2 3 4 5 5 4 4 4 4 4 5 5 5 5 6 7 7 8 7 7 6 7 7 7 8 8 8 8
8 7 5 2 -1 -2 -3 -2 -2 -2 -2 -1 -1 0 1 2 3 4 5 5 4 4 4 4 5 6 6 6 6 7 7 7 8 8 7 7 7 7 7 7 8 8 8
8 7 6 4 1 -1 -2 -2 -2 -2 -2 -2 -1 -1 0 1 2 4 5 5 5 4 4 4 5 6 7 7 7 7 7 8 8 8 8 7 7 7 7 7 7 8 8
7 7 6 5 2 -0 -2 -2 -2 -2 -2 -2 -2 -1 -0 1 2 4 5 5 5 5 5 5 6 7 7 7 7 7 8 8 9 9 8 8 7 7 7 7 7 7 8
6 6 6 5 3 0 -1 -2 -2 -2 -2 -2 -2 -2 -1 0 1 3 5 5 5 5 5 5 6 7 7 7 7 8 8 9 9 9 9 8 8 7 7 7 7 7 8
6 6 6 5 3 1 -1 -1 -2 -1 -1 -1 -2 -2 -1 -0 1 3 5 5 5 5 5 6 6 7 7 7 8 8 8 9 9 9 9 9 8 7 7 7 7 7 7
6 6 5 5 4 2 0 -1 -1 -1 -1 -1 -1 -2 -1 -1 0 2 4 5 5 5 6 6 7 7 7 7 8 8 9 9 9 9 10 9 9 8 8 8 8 8 8
5 5 5 5 4 2 1 0 0 0 -0 -0 -1 -1 -1 -1 -1 1 3 5 5 5 6 7 7 7 7 7 8 8 9 9 9 10 10 10 9 9 9 9 9 10 10
5 5 4 4 4 3 2 1 1 0 0 0 -0 -0 -0 -0 0 1 3 5 5 5 6 7 7 7 7 7 8 8 9 10 10 11 11 11 10 10 11 11 12 13 13
3 4 4 3 3 3 2 1 0 -0 -0 -0 0 1 1 3 3 4 4 5 5 6 7 7 7 7 7 7 8 9 10 10 11 12 12 12 12 13 13 14 14 15 16
2 2 3 2 2 1 0 -0 -1 -1 -1 -1 0 2 3 4 6 6 5 5 5 6 7 7 7 7 7 8 8 9 10 11 11 12 12 13 14 15 15 15 16 17 17
1 1 2 1 1 -0 -1 -1 -2 -2 -2 -1 1 3 4 5 6 6 6 5 5 6 7 7 7 7 8 8 9 9 10 11 11 11 12 13 14 14 15 15 15 16 17
1 1 1 1 0 -1 -1 -1 -2 -2 -1 -0 1 3 5 6 6 6 6 6 6 6 7 7 7 8 8 8 9 9 10 10 11 11 11 12 13 14 15 15 15 16 17
2 1 1 0 0 -0 -1 -1 -1 -1 -0 0 1 3 5 6 6 6 6 6 7 7 7 7 7 7 8 8 8 9 10 10 11 11 11 12 13 13 14 14 15 15 16
3 2 1 0 0 0 -0 -0 -1 -0 0 0 1 2 4 6 6 6 6 6 7 7 7 7 7 7 7 8 8 9 9 10 11 11 11 12 12 13 14 14 15 15 16